| time (UTC) | temp F | wind direction | speed MPH | gust MPH | rain 1hr in | rain 24hr in | rain mn in | humidity % | barometer mb |
| 20260901113100 | 48 | 277 | 2.0 | 18.0 | 0.00 | 0.00 | 0.00 | 58 | 1004.4 |
| 20260901111556 | 48 | 302 | 4.0 | 13.0 | 0.00 | 0.00 | 0.00 | 58 | 1004.4 |
| 20260901110058 | 49 | 236 | 3.0 | 17.0 | 0.00 | 0.00 | 0.00 | 58 | 1004.2 |
| 20260901104600 | 49 | 255 | 5.0 | 14.0 | 0.00 | 0.00 | 0.00 | 58 | 1004.2 |
| 20260901103050 | 49 | 275 | 4.0 | 13.0 | 0.00 | 0.00 | 0.00 | 58 | 1004.2 |
| 20260901101553 | 49 | 298 | 6.0 | 19.0 | 0.00 | 0.00 | 0.00 | 58 | 1004.0 |
| 20260901100048 | 49 | 264 | 5.0 | 18.0 | 0.00 | 0.00 | 0.00 | 59 | 1004.0 |
| 20260901094546 | 49 | 304 | 5.0 | 16.0 | 0.00 | 0.00 | 0.00 | 59 | 1003.9 |
| 20260901093051 | 49 | 284 | 5.0 | 12.0 | 0.00 | 0.00 | 0.00 | 60 | 1003.9 |
| 20260901091554 | 50 | 214 | 4.0 | 11.0 | 0.00 | 0.00 | 0.00 | 59 | 1004.2 |
| 20260901090040 | 50 | 265 | 2.0 | 12.0 | 0.00 | 0.00 | 0.00 | 58 | 1004.1 |
| 20260901084538 | 51 | 148 | 6.0 | 14.0 | 0.00 | 0.00 | 0.00 | 58 | 1004.3 |
| 20260901083038 | 51 | 250 | 5.0 | 15.0 | 0.00 | 0.00 | 0.00 | 58 | 1004.3 |
| 20260901081535 | 51 | 241 | 3.0 | 16.0 | 0.00 | 0.00 | 0.00 | 57 | 1004.4 |
| 20260901080035 | 51 | 277 | 4.0 | 14.0 | 0.00 | 0.00 | 0.00 | 58 | 1004.6 |
| 20260901074533 | 52 | 236 | 3.0 | 9.0 | 0.00 | 0.00 | 0.00 | 58 | 1004.7 |
| 20260901073027 | 52 | 254 | 2.0 | 6.0 | 0.00 | 0.00 | 0.00 | 58 | 1004.7 |
| 20260901071529 | 52 | 257 | 3.0 | 9.0 | 0.00 | 0.00 | 0.00 | 57 | 1004.8 |
| 20260901070027 | 52 | 275 | 4.0 | 16.0 | 0.00 | 0.00 | 0.00 | 57 | 1004.7 |
| 20260901064527 | 53 | 269 | 8.0 | 16.0 | 0.00 | 0.00 | 0.00 | 56 | 1004.8 |
| 20260901063027 | 53 | 276 | 4.0 | 11.0 | 0.00 | 0.00 | 0.00 | 56 | 1004.7 |
| 20260901061526 | 53 | 235 | 4.0 | 14.0 | 0.00 | 0.00 | 0.00 | 56 | 1004.5 |
| 20260901060025 | 53 | 52 | 3.0 | 8.0 | 0.00 | 0.00 | 0.00 | 55 | 1004.8 |
| 20260901054525 | 53 | 233 | 5.0 | 15.0 | 0.00 | 0.00 | 0.00 | 55 | 1004.9 |
| 20260901053024 | 53 | 257 | 6.0 | 13.0 | 0.00 | 0.00 | 0.00 | 56 | 1004.9 |
| 20260901051524 | 52 | 284 | 4.0 | 17.0 | 0.00 | 0.00 | 0.00 | 55 | 1004.6 |
| 20260901050024 | 52 | 283 | 5.0 | 11.0 | 0.00 | 0.00 | 0.00 | 56 | 1004.4 |
| 20260901044523 | 52 | 218 | 5.0 | 11.0 | 0.00 | 0.00 | 0.00 | 56 | 1004.3 |
| 20260901043028 | 53 | 246 | 6.0 | 18.0 | 0.00 | 0.00 | 0.00 | 55 | 1004.2 |
| 20260901041523 | 53 | 202 | 7.0 | 21.0 | 0.00 | 0.00 | 0.00 | 55 | 1004.5 |
| 20260901040023 | 53 | 280 | 6.0 | 18.0 | 0.00 | 0.00 | 0.00 | 55 | 1004.3 |
| 20260901034522 | 53 | 179 | 4.0 | 15.0 | 0.00 | 0.00 | 0.00 | 55 | 1004.5 |
| 20260901033026 | 53 | 242 | 5.0 | 18.0 | 0.00 | 0.00 | 0.00 | 55 | 1004.5 |
| 20260901031530 | 53 | 132 | 6.0 | 14.0 | 0.00 | 0.00 | 0.00 | 56 | 1004.3 |
| 20260901030021 | 54 | 209 | 5.0 | 17.0 | 0.00 | 0.00 | 0.00 | 56 | 1004.1 |
| 20260901024521 | 54 | 230 | 5.0 | 20.0 | 0.00 | 0.00 | 0.00 | 55 | 1003.6 |
| 20260901023026 | 55 | 205 | 6.0 | 16.0 | 0.00 | 0.00 | 0.00 | 54 | 1003.8 |
| 20260901021521 | 56 | 226 | 3.0 | 13.0 | 0.00 | 0.00 | 0.00 | 55 | 1003.5 |
| 20260901020030 | 56 | 207 | 3.0 | 15.0 | 0.00 | 0.00 | 0.00 | 54 | 1003.3 |
| 20260901014522 | 57 | 223 | 3.0 | 16.0 | 0.00 | 0.00 | 0.00 | 52 | 1003.5 |
| 20260901013029 | 58 | 250 | 3.0 | 16.0 | 0.00 | 0.00 | 0.00 | 50 | 1003.4 |
| 20260901011517 | 60 | 184 | 3.0 | 12.0 | 0.00 | 0.00 | 0.00 | 48 | 1003.5 |
| 20260901010021 | 61 | 200 | 5.0 | 15.0 | 0.00 | 0.00 | 0.00 | 48 | 1003.6 |
| 20260901004518 | 62 | 227 | 3.0 | 15.0 | 0.00 | 0.00 | 0.00 | 47 | 1003.7 |
| 20260901003017 | 62 | 227 | 5.0 | 12.0 | 0.00 | 0.00 | 0.00 | 46 | 1003.9 |
| 20260901001523 | 63 | 202 | 5.0 | 18.0 | 0.00 | 0.00 | 0.00 | 43 | 1004.1 |
| 20260901000015 | 63 | 259 | 5.0 | 12.0 | 0.00 | 0.00 | 0.00 | 44 | 1004.0 |
| 20260831234515 | 64 | 279 | 8.0 | 25.0 | 0.00 | 0.00 | 0.00 | 43 | 1004.0 |
| 20260831233014 | 64 | 169 | 5.0 | 17.0 | 0.00 | 0.00 | 0.00 | 41 | 1004.1 |
| 20260831231515 | 64 | 272 | 5.0 | 15.0 | 0.00 | 0.00 | 0.00 | 40 | 1004.1 |
| 20260831230014 | 66 | 242 | 7.0 | 18.0 | 0.00 | 0.00 | 0.00 | 38 | 1004.1 |
| 20260831224513 | 66 | 269 | 4.0 | 18.0 | 0.00 | 0.00 | 0.00 | 38 | 1004.0 |
| 20260831223009 | 66 | 272 | 4.0 | 13.0 | 0.00 | 0.00 | 0.00 | 37 | 1004.1 |
| 20260831221509 | 66 | 231 | 6.0 | 23.0 | 0.00 | 0.00 | 0.00 | 37 | 1004.3 |
| 20260831220008 | 66 | 218 | 4.0 | 14.0 | 0.00 | 0.00 | 0.00 | 35 | 1004.2 |
| 20260831214507 | 67 | 270 | 7.0 | 20.0 | 0.00 | 0.00 | 0.00 | 35 | 1004.2 |
| 20260831213011 | 66 | 298 | 7.0 | 21.0 | 0.00 | 0.00 | 0.00 | 34 | 1004.4 |
| 20260831211508 | 67 | 287 | 4.0 | 16.0 | 0.00 | 0.00 | 0.00 | 33 | 1004.6 |
| 20260831210007 | 68 | 280 | 6.0 | 16.0 | 0.00 | 0.00 | 0.00 | 29 | 1004.5 |
| 20260831204507 | 69 | 265 | 4.0 | 14.0 | 0.00 | 0.00 | 0.00 | 30 | 1004.7 |
| 20260831203008 | 67 | 248 | 8.0 | 17.0 | 0.00 | 0.00 | 0.00 | 27 | 1004.8 |
| 20260831201510 | 68 | 306 | 5.0 | 21.0 | 0.00 | 0.00 | 0.00 | 27 | 1004.7 |
| 20260831200007 | 68 | 257 | 3.0 | 13.0 | 0.00 | 0.00 | 0.00 | 28 | 1004.8 |
| 20260831194507 | 68 | 232 | 6.0 | 14.0 | 0.00 | 0.00 | 0.00 | 27 | 1004.8 |
| 20260831193008 | 68 | 281 | 6.0 | 15.0 | 0.00 | 0.00 | 0.00 | 26 | 1005.0 |
| 20260831191504 | 68 | 320 | 6.0 | 15.0 | 0.00 | 0.00 | 0.00 | 26 | 1005.0 |
| 20260831190004 | 69 | 309 | 2.0 | 13.0 | 0.00 | 0.00 | 0.00 | 26 | 1005.1 |
| 20260831184504 | 69 | 237 | 1.0 | 6.0 | 0.00 | 0.00 | 0.00 | 26 | 1005.2 |
| 20260831183006 | 68 | 256 | 4.0 | 9.0 | 0.00 | 0.00 | 0.00 | 25 | 1005.2 |
| 20260831181502 | 68 | 300 | 2.0 | 8.0 | 0.00 | 0.00 | 0.00 | 27 | 1005.2 |
| 20260831180001 | 68 | 287 | 2.0 | 10.0 | 0.00 | 0.00 | 0.00 | 26 | 1005.1 |
| 20260831174603 | 68 | 305 | 2.0 | 7.0 | 0.00 | 0.00 | 0.00 | 25 | 1005.0 |
| 20260831173128 | 67 | 199 | 2.0 | 7.0 | 0.00 | 0.00 | 0.00 | 28 | 1005.0 |
| 20260831171557 | 66 | 182 | 1.0 | 10.0 | 0.00 | 0.00 | 0.00 | 28 | 1005.0 |
| 20260831170056 | 66 | 26 | 0.0 | 5.0 | 0.00 | 0.00 | 0.00 | 28 | 1004.9 |
| 20260831164606 | 65 | 90 | 2.0 | 7.0 | 0.00 | 0.00 | 0.00 | 31 | 1004.9 |
| 20260831163056 | 64 | 82 | 4.0 | 8.0 | 0.00 | 0.00 | 0.00 | 31 | 1004.8 |
| 20260831161553 | 64 | 76 | 3.0 | 6.0 | 0.00 | 0.00 | 0.00 | 32 | 1005.0 |
| 20260831160100 | 65 | 28 | 1.0 | 4.0 | 0.00 | 0.00 | 0.00 | 27 | 1005.1 |
| 20260831154548 | 63 | 132 | 0.0 | 5.0 | 0.00 | 0.00 | 0.00 | 30 | 1005.2 |
| 20260831153047 | 62 | 280 | 1.0 | 4.0 | 0.00 | 0.00 | 0.00 | 29 | 1005.2 |
| 20260831151545 | 60 | 269 | 1.0 | 8.0 | 0.00 | 0.00 | 0.00 | 31 | 1005.1 |
| 20260831150041 | 59 | 344 | 1.0 | 12.0 | 0.00 | 0.00 | 0.00 | 33 | 1005.1 |
| 20260831144537 | 57 | 30 | 4.0 | 10.0 | 0.00 | 0.00 | 0.00 | 35 | 1005.0 |
| 20260831143035 | 56 | 250 | 3.0 | 15.0 | 0.00 | 0.00 | 0.00 | 37 | 1004.9 |
| 20260831141533 | 55 | 254 | 5.0 | 11.0 | 0.00 | 0.00 | 0.00 | 39 | 1004.7 |
| 20260831140031 | 0 | 0.0 | 0.0 | 0.00 | 0.00 | 0.00 | 1004.2 | ||
| 20260831134528 | 0 | 0.0 | 0.0 | 0.00 | 0.00 | 0.00 | 1004.2 | ||
| 20260831133033 | 0 | 0.0 | 0.0 | 0.00 | 0.00 | 0.00 | 1004.1 | ||
| 20260831131519 | 0 | 0.0 | 0.0 | 0.00 | 0.00 | 0.00 | 1004.1 | ||
| 20260831130017 | 0 | 0.0 | 0.0 | 0.00 | 0.00 | 0.00 | 1004.2 | ||
| 20260831124533 | 0 | 0.0 | 0.0 | 0.00 | 0.00 | 0.00 | 1004.3 | ||
| 20260831123007 | 0 | 0.0 | 0.0 | 0.00 | 0.00 | 0.00 | 1004.4 | ||
| 20260831121503 | 0 | 0.0 | 0.0 | 0.00 | 0.00 | 0.00 | 1004.7 | ||
| 20260831120100 | 0 | 0.0 | 0.0 | 0.00 | 0.00 | 0.00 | 1005.0 | ||
| 20260831114558 | 54 | 183 | 1.0 | 12.0 | 0.00 | 0.00 | 0.00 | 41 | 1005.2 |